x

Edisto - 41 Nm Southeast Of Charleston, Sc (41004) Wave Buoy

5:50am - Wed 20th Aug 2014 All times are EDT. -4 hours from GMT.

  • Sig Wave height 3.9ft
  • Swell Direction
  • Peak Period 5s
  • Average Period 4s
  • Wind
    16mph, 18mph gusts
  • Sea Temp 83°f
  • Air Temp 81°f
  • Sea Pressure 1012.3mb
  • Edisto - 41 Nm Southeast Of Charleston, Sc
  • Edisto - 41 Nm Southeast Of Charleston, Sc

More Historic Weather Station data

Upgrade to MSW Pro to gain access to the past 30 days of data for over 8000 Wavebouys and Weather Stations around the globe.

Join Pro

Comparision Forecast

View Surf forecast
   
Wed 08/20 5:50am 4ft 5s 4s 16 18 mph 1012.3mb 83f 81f
4:50am 4ft 5s 4s 18 22 mph 1011.6mb 83f 82f
3:50am 3.5ft 5s 4s 18 20 mph 1011.6mb 83f 82f
2:50am 3.5ft 5s 4s 16 20 mph 1011.5mb 83f 83f
1:50am 4ft 5s 5s 13 18 mph 1011.9mb 83f 83f
12:50am 4ft 5s 5s 13 18 mph 1012.2mb 83f 83f
Tue 08/19 11:50pm 4.5ft 6s 5s 16 20 mph 1012.4mb 83f 84f
10:50pm 4.5ft 6s 5s 16 20 mph 1012.2mb 83f 83f
9:50pm 4.5ft 6s 5s 16 20 mph 1011.5mb 83f 83f
8:50pm 5ft 6s 5s 20 25 mph 1010.9mb 83f 84f
7:50pm 5ft 6s 5s 20 22 mph 1010.7mb 83f 84f
6:50pm 5ft 6s 5s 22 27 mph 1010.5mb 83f 83f
5:50pm 5ft 6s 4s 25 29 mph 1010.1mb 83f 82f
4:50pm 4.5ft 6s 4s 22 29 mph 1009.8mb 83f 83f
3:50pm 4.5ft 6s 5s 22 27 mph 1010.6mb 83f 83f
2:50pm 5ft 6s 5s 20 25 mph 1011.6mb 83f 83f
1:50pm 5ft 6s 5s 18 22 mph 1012mb 83f 83f
12:50pm 5.5ft 6s 5s 18 22 mph 1012.5mb 83f 83f
11:50am 5.5ft 7s 5s 20 22 mph 1012.8mb 83f 82f
10:50am 5.5ft 7s 5s 22 27 mph 1013mb 83f 82f
9:50am 5.5ft 6s 5s 25 27 mph 1012.3mb 83f 82f
8:50am 5ft 6s 5s 22 29 mph 1011.7mb 83f 82f
7:50am 5ft 6s 5s 20 25 mph 1011.3mb 83f 82f
6:50am 5ft 6s 5s 22 25 mph 1010.9mb 83f 82f
5:50am 6ft 6s 5s 18 20 mph 1010.4mb 83f 82f
4:50am 6ft 6s 5s 22 27 mph 1010mb 83f 83f
3:50am 5.5ft 7s 5s 25 29 mph 1009.7mb 83f 84f
2:50am 5.5ft 6s 5s 18 20 mph 1009.9mb 83f 84f
1:50am 6ft 6s 5s 9 11 mph 1010.8mb 83f 81f
12:50am 6ft 6s 5s 11 18 mph 1011.3mb 83f 79f
Mon 08/18 11:50pm 5ft 6s 5s 18 25 mph 1011.9mb 83f 83f
10:50pm 4.5ft 6s 4s 22 25 mph 1010.9mb 84f 84f
9:50pm 5ft 6s 5s 22 25 mph 1011.1mb 84f 84f
8:50pm 4.5ft 6s 4s 22 25 mph 1010.8mb 84f 84f
7:50pm 4.5ft 5s 4s 22 27 mph 1010.3mb 84f 84f
6:50pm 4.5ft 5s 4s 22 27 mph 1010mb 84f 83f
5:50pm 4.5ft 5s 4s 22 29 mph 1010.3mb 84f 83f
4:50pm 3.5ft 5s 4s 22 25 mph 1010.8mb 84f 83f
3:50pm 3.5ft 5s 4s 18 22 mph 1011.6mb 84f 83f
2:50pm 3.5ft 5s 4s 20 22 mph 1012.4mb 84f 83f
1:50pm 3.5ft 5s 4s 18 20 mph 1013.3mb 84f 83f
12:50pm 3.5ft 5s 4s 18 20 mph 1013.4mb 84f 82f
11:50am 3.5ft 6s 4s 16 20 mph 1014.1mb 84f 82f
10:50am 3.5ft 6s 5s 13 16 mph 1014.2mb 83f 82f
9:50am 3.5ft 6s 4s 13 16 mph 1014mb 83f 82f
8:50am 3.5ft 5s 5s 16 18 mph 1014.3mb 83f 82f
7:50am 3.5ft 5s 4s 16 18 mph 1014.3mb 83f 83f
6:50am 3.5ft 5s 4s 16 20 mph 1014mb 83f 83f
5:50am 3ft 5s 4s 20 22 mph 1013.8mb 83f 83f
4:50am 3.5ft 5s 4s 18 20 mph 1013.4mb 84f 83f
3:50am 3.5ft 5s 4s 20 22 mph 1013.7mb 84f 84f
2:50am 3ft 4s 4s 20 25 mph 1013.7mb 84f 83f
1:50am 3ft 5s 4s 18 20 mph 1014.2mb 84f 84f
12:50am 2.5ft 4s 4s 20 22 mph 1014.6mb 84f 84f
Sun 08/17 11:50pm 2.5ft 4s 4s 18 20 mph 1014.9mb 84f 84f
10:50pm 2.5ft 4s 4s 16 20 mph 1015.3mb 84f 84f
9:50pm 2.5ft 5s 4s 16 18 mph 1015.2mb 84f 84f
8:50pm 2.5ft 4s 4s 13 16 mph 1014.7mb 84f 84f
7:50pm 2.5ft 5s 4s 13 18 mph 1014.8mb 84f 84f
6:50pm 2.5ft 4s 4s 16 18 mph 1014.5mb 84f 84f
5:50pm 2.5ft 5s 4s 16 18 mph 1014.6mb 84f 84f
4:50pm 2.5ft 5s 4s 16 18 mph 1014.9mb 84f 84f
3:50pm 2.5ft 5s 4s 16 18 mph 1015mb 84f 84f
2:50pm 2.5ft 5s 4s 13 16 mph 1015.4mb 84f 84f
1:50pm 2.5ft 5s 4s 11 13 mph 1016mb 84f 83f
12:50pm 2.5ft 5s 4s 11 13 mph 1016.3mb 84f 84f
11:50am 2.5ft 5s 4s 11
mph
1016.7mb 84f 84f
10:50am 2.5ft 5s 4s 11 13 mph 1016.7mb 83f 83f
9:50am 2.5ft 5s 4s 11 13 mph 1016.5mb 83f 83f
8:50am 2.5ft 5s 4s 11 13 mph 1016.5mb 83f 83f
7:50am 2.5ft 5s 5s 11 13 mph 1016.3mb 83f 83f
6:50am 2.5ft 5s 4s 11 13 mph 1016mb 83f 83f
5:50am 2.5ft 5s 4s 11 13 mph 1015.7mb 83f 83f
4:50am 3ft 5s 4s 13 16 mph 1015.4mb 83f 83f
3:50am 2.5ft 8s 4s 13 16 mph 1015.2mb 83f 83f
2:50am 2.5ft 5s 4s 16 18 mph 1015.2mb 83f 83f
1:50am 2.5ft 5s 4s 16 18 mph 1015.5mb 83f 83f
12:50am 2.5ft 8s 4s 13 18 mph 1015.9mb 83f 83f
Sat 08/16 11:50pm 2.5ft 5s 4s 13 16 mph 1016.2mb 83f 83f
10:50pm 2.5ft 8s 4s 16 18 mph 1016.3mb 84f 83f
9:50pm 3ft 5s 4s 16 18 mph 1016.1mb 84f 83f
8:50pm 3ft 9s 4s 16 20 mph 1015.6mb 84f 83f
7:50pm 3ft 9s 4s 18 20 mph 1015.6mb 84f 83f
6:50pm 2.5ft 8s 4s 13 16 mph 1015.7mb 84f 83f
5:50pm 2.5ft 8s 5s 13 16 mph 1015.7mb 84f 83f
4:50pm 2.5ft 9s 5s 11 13 mph 1015.4mb 84f 83f
3:50pm 2.5ft 9s 5s 9 11 mph 1015.7mb 85f 83f
2:50pm 2.5ft 9s 5s 9 11 mph 1016mb 85f 83f
1:50pm 2ft 8s 5s 7 9 mph 1016.2mb 85f 83f
12:50pm 2ft 8s 5s 7 9 mph 1016.6mb 85f 83f
11:50am 2ft 8s 5s 4
mph
1016.7mb 84f 83f